SWA6299 MDPP-TIST

Flight info

Callsign SWA6299
Flight time 0h 51m
Altitude 33000
Route POKEG3C POKEG DCT YAAYA DCT JETSS DCT STT
Aircraft B738/M-SDE2E3FGHIRWXY/LB1

Departure

Time 2026-05-06 19:56
Airport Gregorio Luperon International Airport (MDPP)

Arrival

Time 2026-05-06 20:47
Airport Cyril E. King Airport (TIST)
Time Latitude Longitude Altitude Speed Heading
2026-05-06 19:25 19.75488 -70.56480 56 ft 0 kts 18°
2026-05-06 19:43 19.75489 -70.56480 56 ft 0 kts 18°
2026-05-06 19:43 19.75479 -70.56484 56 ft 2 kts 18°
2026-05-06 19:44 19.75465 -70.56489 56 ft 2 kts 18°
2026-05-06 19:44 19.75450 -70.56494 56 ft 2 kts 18°
2026-05-06 19:44 19.75442 -70.56497 56 ft 1 kts
2026-05-06 19:44 19.75432 -70.56494 57 ft 1 kts 307°
2026-05-06 19:45 19.75429 -70.56484 57 ft 0 kts 259°
2026-05-06 19:45 19.75431 -70.56477 57 ft 1 kts 254°
2026-05-06 19:45 19.75431 -70.56476 57 ft 0 kts 255°
2026-05-06 19:48 19.75431 -70.56479 57 ft 2 kts 256°
2026-05-06 19:48 19.75430 -70.56538 56 ft 11 kts 278°
2026-05-06 19:48 19.75470 -70.56601 54 ft 10 kts 341°
2026-05-06 19:49 19.75543 -70.56622 51 ft 11 kts 341°
2026-05-06 19:49 19.75621 -70.56662 47 ft 12 kts 302°
2026-05-06 19:49 19.75609 -70.56749 48 ft 12 kts 251°
2026-05-06 19:49 19.75581 -70.56845 47 ft 15 kts 253°
2026-05-06 19:50 19.75546 -70.56966 45 ft 17 kts 252°
2026-05-06 19:50 19.75553 -70.57071 44 ft 14 kts 309°
2026-05-06 19:50 19.75621 -70.57144 43 ft 12 kts 315°
2026-05-06 19:50 19.75647 -70.57171 42 ft 0 kts 315°
2026-05-06 19:52 19.75649 -70.57173 42 ft 2 kts 315°
2026-05-06 19:53 19.75699 -70.57234 41 ft 17 kts 297°
2026-05-06 19:53 19.75682 -70.57377 42 ft 22 kts 252°
2026-05-06 19:53 19.75633 -70.57546 43 ft 25 kts 252°
2026-05-06 19:53 19.75579 -70.57730 44 ft 27 kts 252°
2026-05-06 19:54 19.75523 -70.57927 45 ft 27 kts 252°
2026-05-06 19:54 19.75468 -70.58116 45 ft 24 kts 252°
2026-05-06 19:54 19.75421 -70.58270 43 ft 17 kts 244°
2026-05-06 19:54 19.75377 -70.58361 42 ft 7 kts 271°
2026-05-06 19:55 19.75397 -70.58366 42 ft 3 kts 45°
2026-05-06 19:55 19.75427 -70.58260 44 ft 45 kts 73°
2026-05-06 19:55 19.75595 -70.57677 44 ft 116 kts 73°
2026-05-06 19:55 19.75893 -70.56649 58 ft 173 kts 76°
2026-05-06 19:56 19.76253 -70.55389 633 ft 183 kts 75°
2026-05-06 19:56 19.76641 -70.54075 1248 ft 192 kts 75°
2026-05-06 19:56 19.77063 -70.52617 1525 ft 220 kts 75°
2026-05-06 19:56 19.77578 -70.51022 2042 ft 239 kts 65°
2026-05-06 19:57 19.78679 -70.49644 2590 ft 262 kts 38°
2026-05-06 19:57 19.80164 -70.48503 3426 ft 268 kts 43°
2026-05-06 19:57 19.81499 -70.47088 4180 ft 275 kts 49°
2026-05-06 19:57 19.82787 -70.45614 5043 ft 279 kts 49°
2026-05-06 19:58 19.84137 -70.44076 5887 ft 284 kts 49°
2026-05-06 19:58 19.85479 -70.42536 6740 ft 288 kts 49°
2026-05-06 19:58 19.86819 -70.40993 7592 ft 291 kts 49°
2026-05-06 19:58 19.88180 -70.39426 8449 ft 293 kts 49°
2026-05-06 19:59 19.89566 -70.37828 9270 ft 295 kts 49°
2026-05-06 19:59 19.90949 -70.36231 10027 ft 300 kts 48°
2026-05-06 19:59 19.92396 -70.34558 10497 ft 316 kts 48°
2026-05-06 19:59 19.93941 -70.32772 10702 ft 338 kts 48°
2026-05-06 20:00 19.95528 -70.30941 11376 ft 344 kts 47°
2026-05-06 20:00 19.97173 -70.29043 11947 ft 352 kts 47°
2026-05-06 20:00 19.98824 -70.27135 12707 ft 354 kts 47°
2026-05-06 20:00 20.00503 -70.25193 13372 ft 358 kts 46°
2026-05-06 20:01 20.02170 -70.23265 14012 ft 362 kts 46°
2026-05-06 20:01 20.03897 -70.21268 14656 ft 365 kts 46°
2026-05-06 20:01 20.05594 -70.19303 15267 ft 369 kts 46°
2026-05-06 20:01 20.07332 -70.17291 15878 ft 373 kts 46°
2026-05-06 20:02 20.09091 -70.15252 16470 ft 376 kts 45°
2026-05-06 20:02 20.10865 -70.13194 17051 ft 379 kts 45°
2026-05-06 20:02 20.12644 -70.11131 17613 ft 383 kts 45°
2026-05-06 20:02 20.14304 -70.08913 18123 ft 389 kts 56°
2026-05-06 20:03 20.15476 -70.06278 18689 ft 395 kts 71°
2026-05-06 20:03 20.15938 -70.03405 19211 ft 401 kts 87°
2026-05-06 20:03 20.15695 -70.00458 19708 ft 406 kts 102°
2026-05-06 20:03 20.14863 -69.97594 20231 ft 408 kts 110°
2026-05-06 20:04 20.13864 -69.94738 20669 ft 413 kts 109°
2026-05-06 20:04 20.12909 -69.91866 21140 ft 416 kts 108°
2026-05-06 20:04 20.11960 -69.88955 21595 ft 419 kts 108°
2026-05-06 20:04 20.10988 -69.86013 22016 ft 422 kts 108°
2026-05-06 20:05 20.10019 -69.83109 22456 ft 424 kts 108°
2026-05-06 20:05 20.09018 -69.80109 22855 ft 427 kts 108°
2026-05-06 20:05 20.08033 -69.77155 23229 ft 431 kts 108°
2026-05-06 20:05 20.07034 -69.74161 23591 ft 433 kts 108°
2026-05-06 20:06 20.06014 -69.71114 23965 ft 436 kts 108°
2026-05-06 20:06 20.05004 -69.68098 24374 ft 438 kts 108°
2026-05-06 20:06 20.03973 -69.65023 24764 ft 440 kts 108°
2026-05-06 20:06 20.02953 -69.61986 25125 ft 442 kts 108°
2026-05-06 20:07 20.01922 -69.58916 25479 ft 444 kts 107°
2026-05-06 20:07 20.00869 -69.55777 25807 ft 447 kts 107°
2026-05-06 20:07 19.99827 -69.52674 26103 ft 450 kts 107°
2026-05-06 20:07 19.98772 -69.49541 26452 ft 451 kts 107°
2026-05-06 20:08 19.97710 -69.46395 26726 ft 454 kts 107°
2026-05-06 20:08 19.96656 -69.43266 27017 ft 457 kts 107°
2026-05-06 20:08 19.95579 -69.40067 27356 ft 458 kts 107°
2026-05-06 20:08 19.94514 -69.36901 27630 ft 460 kts 107°
2026-05-06 20:09 19.93426 -69.33676 27927 ft 462 kts 107°
2026-05-06 20:09 19.92349 -69.30495 28200 ft 464 kts 107°
2026-05-06 20:09 19.91258 -69.27271 28466 ft 466 kts 107°
2026-05-06 20:09 19.90150 -69.23993 28711 ft 468 kts 107°
2026-05-06 20:10 19.89061 -69.20773 28959 ft 470 kts 107°
2026-05-06 20:10 19.87952 -69.17497 29212 ft 472 kts 107°
2026-05-06 20:10 19.86844 -69.14230 29421 ft 474 kts 107°
2026-05-06 20:10 19.85727 -69.10935 29631 ft 476 kts 107°
2026-05-06 20:11 19.84610 -69.07645 29883 ft 477 kts 107°
2026-05-06 20:11 19.83478 -69.04315 30065 ft 480 kts 107°
2026-05-06 20:11 19.82342 -69.00971 30289 ft 481 kts 107°
2026-05-06 20:11 19.81210 -68.97638 30530 ft 481 kts 107°
2026-05-06 20:12 19.80088 -68.94328 30737 ft 483 kts 107°
2026-05-06 20:12 19.78948 -68.90974 30916 ft 485 kts 108°
2026-05-06 20:12 19.77788 -68.87581 31138 ft 485 kts 108°
2026-05-06 20:12 19.76649 -68.84255 31317 ft 487 kts 108°
2026-05-06 20:13 19.75494 -68.80880 31524 ft 488 kts 108°
2026-05-06 20:13 19.74332 -68.77483 31661 ft 490 kts 108°
2026-05-06 20:13 19.73182 -68.74115 31842 ft 491 kts 108°
2026-05-06 20:13 19.72007 -68.70676 31997 ft 492 kts 108°
2026-05-06 20:14 19.70851 -68.67297 32178 ft 493 kts 108°
2026-05-06 20:14 19.69673 -68.63860 32331 ft 494 kts 108°
2026-05-06 20:14 19.68501 -68.60440 32481 ft 495 kts 108°
2026-05-06 20:14 19.67326 -68.57014 32641 ft 496 kts 108°
2026-05-06 20:15 19.66149 -68.53586 32839 ft 496 kts 108°
2026-05-06 20:15 19.64974 -68.50166 33023 ft 495 kts 108°
2026-05-06 20:15 19.62625 -68.43333 33029 ft 495 kts 108°
2026-05-06 20:16 19.60282 -68.36530 33030 ft 493 kts 108°
2026-05-06 20:16 19.57921 -68.29681 33048 ft 493 kts 109°
2026-05-06 20:17 19.55568 -68.22866 33048 ft 494 kts 109°
2026-05-06 20:17 19.53218 -68.16068 33049 ft 494 kts 109°
2026-05-06 20:18 19.50851 -68.09232 33050 ft 493 kts 109°
2026-05-06 20:18 19.48494 -68.02434 33051 ft 493 kts 109°
2026-05-06 20:19 19.46124 -67.95606 33052 ft 494 kts 109°
2026-05-06 20:19 19.43755 -67.88796 33053 ft 495 kts 109°
2026-05-06 20:20 19.41390 -67.82001 33054 ft 494 kts 109°
2026-05-06 20:20 19.39011 -67.75178 33055 ft 494 kts 109°
2026-05-06 20:21 19.36639 -67.68383 33056 ft 493 kts 109°
2026-05-06 20:21 19.34255 -67.61562 33058 ft 494 kts 109°
2026-05-06 20:22 19.31876 -67.54766 33059 ft 494 kts 109°
2026-05-06 20:22 19.29499 -67.47985 33060 ft 494 kts 109°
2026-05-06 20:23 19.27163 -67.41142 33058 ft 494 kts 107°
2026-05-06 20:23 19.25234 -67.34197 33060 ft 494 kts 105°
2026-05-06 20:24 19.23280 -67.27275 33061 ft 494 kts 106°
2026-05-06 20:24 19.21283 -67.20309 33062 ft 494 kts 106°
2026-05-06 20:25 19.19302 -67.13406 33064 ft 494 kts 106°
2026-05-06 20:25 19.17291 -67.06423 33063 ft 494 kts 106°
2026-05-06 20:26 19.15294 -66.99505 33063 ft 493 kts 106°
2026-05-06 20:26 19.13301 -66.92612 33063 ft 493 kts 106°
2026-05-06 20:27 19.11287 -66.85664 33062 ft 494 kts 106°
2026-05-06 20:27 19.09278 -66.78741 33061 ft 494 kts 106°
2026-05-06 20:28 19.07271 -66.71835 33060 ft 494 kts 106°
2026-05-06 20:28 19.05251 -66.64898 33059 ft 494 kts 106°
2026-05-06 20:29 19.03231 -66.57967 33058 ft 495 kts 107°
2026-05-06 20:29 19.01207 -66.51039 33056 ft 494 kts 107°
2026-05-06 20:30 18.98175 -66.40674 33055 ft 493 kts 107°
2026-05-06 20:31 18.96154 -66.33778 33052 ft 493 kts 107°
2026-05-06 20:31 18.94136 -66.26907 33051 ft 493 kts 107°
2026-05-06 20:32 18.92104 -66.20000 32201 ft 491 kts 107°
2026-05-06 20:32 18.91102 -66.16612 31310 ft 493 kts 107°
2026-05-06 20:32 18.90070 -66.13133 30348 ft 494 kts 106°
2026-05-06 20:32 18.89053 -66.09706 29362 ft 496 kts 106°
2026-05-06 20:33 18.88032 -66.06249 28426 ft 496 kts 106°
2026-05-06 20:33 18.87025 -66.02824 27993 ft 485 kts 106°
2026-05-06 20:33 18.86030 -65.99434 27254 ft 485 kts 106°
2026-05-06 20:33 18.85032 -65.96032 26506 ft 479 kts 106°
2026-05-06 20:34 18.84053 -65.92706 25779 ft 474 kts 106°
2026-05-06 20:34 18.83081 -65.89429 25043 ft 469 kts 106°
2026-05-06 20:34 18.82120 -65.86198 24313 ft 464 kts 106°
2026-05-06 20:34 18.81154 -65.82948 23572 ft 459 kts 106°
2026-05-06 20:35 18.80213 -65.79775 22845 ft 453 kts 106°
2026-05-06 20:35 18.79281 -65.76633 22123 ft 448 kts 106°
2026-05-06 20:35 18.78350 -65.73501 21396 ft 444 kts 106°
2026-05-06 20:35 18.77431 -65.70409 20671 ft 439 kts 106°
2026-05-06 20:36 18.76525 -65.67361 19957 ft 434 kts 106°
2026-05-06 20:36 18.75627 -65.64346 19239 ft 430 kts 106°
2026-05-06 20:36 18.74744 -65.61382 18530 ft 426 kts 106°
2026-05-06 20:36 18.73862 -65.58421 17828 ft 421 kts 107°
2026-05-06 20:37 18.72992 -65.55502 17054 ft 419 kts 107°
2026-05-06 20:37 18.72124 -65.52593 16317 ft 415 kts 107°
2026-05-06 20:37 18.71266 -65.49721 15602 ft 405 kts 107°
2026-05-06 20:37 18.70443 -65.46967 14948 ft 387 kts 107°
2026-05-06 20:38 18.69643 -65.44291 14298 ft 374 kts 107°
2026-05-06 20:38 18.68866 -65.41692 13660 ft 373 kts 107°
2026-05-06 20:38 18.68090 -65.39101 13046 ft 370 kts 108°
2026-05-06 20:38 18.67090 -65.36712 12746 ft 346 kts 122°
2026-05-06 20:39 18.65663 -65.34805 12651 ft 320 kts 134°
2026-05-06 20:39 18.64146 -65.33197 12493 ft 304 kts 135°
2026-05-06 20:39 18.62703 -65.31632 12202 ft 298 kts 134°
2026-05-06 20:39 18.61265 -65.30061 11839 ft 295 kts 134°
2026-05-06 20:40 18.59845 -65.28528 11492 ft 292 kts 134°
2026-05-06 20:40 18.58434 -65.27007 11134 ft 289 kts 134°
2026-05-06 20:40 18.57027 -65.25489 10736 ft 288 kts 135°
2026-05-06 20:40 18.55516 -65.24130 10259 ft 288 kts 148°
2026-05-06 20:41 18.53791 -65.23080 9614 ft 287 kts 151°
2026-05-06 20:41 18.52121 -65.22019 9023 ft 283 kts 148°
2026-05-06 20:41 18.50480 -65.20920 8523 ft 276 kts 147°
2026-05-06 20:41 18.48882 -65.19852 7987 ft 271 kts 147°
2026-05-06 20:42 18.47303 -65.18795 7359 ft 270 kts 147°
2026-05-06 20:42 18.45718 -65.17738 6732 ft 269 kts 147°
2026-05-06 20:42 18.44147 -65.16691 6108 ft 268 kts 147°
2026-05-06 20:42 18.42597 -65.15657 5537 ft 264 kts 147°
2026-05-06 20:43 18.41059 -65.14637 5034 ft 258 kts 147°
2026-05-06 20:43 18.39561 -65.13650 4533 ft 254 kts 147°
2026-05-06 20:43 18.38075 -65.12680 4030 ft 250 kts 147°
2026-05-06 20:43 18.36612 -65.11732 3551 ft 244 kts 147°
2026-05-06 20:44 18.35206 -65.10829 3049 ft 237 kts 147°
2026-05-06 20:44 18.33889 -65.09907 2525 ft 221 kts 136°
2026-05-06 20:44 18.33067 -65.08626 2026 ft 204 kts 105°
2026-05-06 20:44 18.33098 -65.07233 1732 ft 188 kts 77°
2026-05-06 20:45 18.33374 -65.05948 1482 ft 169 kts 89°
2026-05-06 20:45 18.33414 -65.04778 1272 ft 155 kts 90°
2026-05-06 20:45 18.33461 -65.03630 1046 ft 157 kts 90°
2026-05-06 20:45 18.33493 -65.02861 901 ft 156 kts 90°
2026-05-06 20:46 18.33558 -65.01342 621 ft 155 kts 90°
2026-05-06 20:46 18.33632 -65.00214 434 ft 153 kts 89°
2026-05-06 20:46 18.33664 -64.99113 207 ft 148 kts 90°
2026-05-06 20:46 18.33705 -64.98038 29 ft 144 kts 91°
2026-05-06 20:47 18.33740 -64.97163 32 ft 88 kts 88°
2026-05-06 20:47 18.33757 -64.96753 32 ft 26 kts 87°
2026-05-06 20:47 18.33763 -64.96684 32 ft 3 kts 91°
2026-05-06 20:47 18.33748 -64.96679 32 ft 3 kts 188°
2026-05-06 20:48 18.33719 -64.96682 32 ft 4 kts 185°
2026-05-06 20:48 18.33689 -64.96702 32 ft 6 kts 233°
2026-05-06 20:48 18.33674 -64.96757 32 ft 8 kts 266°
2026-05-06 20:48 18.33670 -64.96831 32 ft 11 kts 266°
2026-05-06 20:49 18.33666 -64.96915 32 ft 11 kts 266°
2026-05-06 20:49 18.33663 -64.96998 32 ft 10 kts 269°
2026-05-06 20:49 18.33660 -64.97076 32 ft 10 kts 266°
2026-05-06 20:49 18.33649 -64.97141 32 ft 6 kts 229°
2026-05-06 20:50 18.33608 -64.97156 32 ft 5 kts 188°
2026-05-06 20:50 18.33579 -64.97160 32 ft 0 kts 189°